Location: Carlisle
(34.5501°N, 84.5969°W)
Time: 21:46:38
(UTC+00:00)

Hubble Space Telescope - Pass Details

Date: 03 December 2021
Orbit: 534 x 538 km, 28.5° (Epoch: 18 January)

Event Time Altitude Azimuth Distance (km) Brightness Sun altitude
Exits shadow 11:39:02 - 245° (WSW) 2,136 3.4 -10.3°
Reaches altitude 10° 11:40:42 10° 228° (SW) 1,772 3.1 -9.9°
Maximum altitude 11:42:26 12° 202° (SSW) 1,622 3.2 -9.6°
Drops below altitude 10° 11:44:11 10° 177° (S) 1,771 3.7 -9.3°
Sets 11:47:37 0° 147° (SSE) 2,659 5.3 -8.6°
